Regional Weather Roundup
Issued by NWS

Home | Current Version | Previous Version | Graphics & Text | Print | Product List | Glossary On
Versions: 1 2 3 4 5 6 7 8 9 10 11 12 13 14 15 16 17 18 19 20 21 22 23 24 25 26 27 28 29 30 31 32 33 34 35 36 37 38 39 40 41 42 43 44 45 46 47 48 49 50
000
ASUS45 KTFX 281819
RWRMT
MONTANA HOURLY WEATHER ROUNDUP
NATIONAL WEATHER SERVICE GREAT FALLS MT
1119 AM MST SAT FEB 28 2015

NOTE: "FAIR" INDICATES FEW OR NO CLOUDS BELOW 12000 FEET WITH NO
SIGNIFICANT WEATHER AND/OR OBSTRUCTIONS TO VISIBILITY.

* THESE STATIONS ARE NOT UNDER NWS QUALITY CONTROL. THEY DO NOT
   REPORT WEATHER SUCH AS PRECIPITATION OR FOG.

MTZ001>007-043-281900-
WEST OF THE DIVIDE
CITY           SKY/WX    TMP DP  RH WIND       PRES   REMARKS
KALISPELL      SUNNY     27   7  42 NE9       30.17R WCI  18
MISSOULA       SUNNY     27   5  39 SE16      30.13R WCI  15
BUTTE          HAZE      12   5  73 NW5       29.99S WCI   4
MULLAN PASS    SUNNY     18   3  52 VRB3      29.93R
* ANACONDA     PTCLDY    16   3  56 NW5        N/A   WCI   8
* ESSEX        N/A       22   1  40 S1         N/A
* EUREKA APT   SUNNY     27   3  35 CALM      30.22S
* HAMILTON APT PTCLDY    25   5  42 N8        30.06R WCI  16
* LIBBY APT    SUNNY     28   3  34 NW3       30.20S
* LINCOLN      N/A       15   2  56 NE11G17    N/A   WCI   2
* LOOKOUT PASS N/A       22   4  46 NW5G14     N/A   WCI  15
* POLSON       N/A       25   6  44 NE3G9      N/A
* RONAN APT    SUNNY     28   7  41 N/A        N/A
* SEELEY LAKE  N/A       24   6  46 S1         N/A
* THOMP F APT  SUNNY     17   4  56 NW10G22    N/A   WCI   5
$$

MTZ008-052>055-281900-
SOUTHWEST MONTANA
CITY           SKY/WX    TMP DP  RH WIND       PRES   REMARKS
BOZEMAN        PTSUNNY   18   9  68 CALM      30.07R
DILLON         CLOUDY    18   7  62 NE16      29.97S WCI   3
* W YELLOWSTON PTSUNNY   18   3  52 N3         N/A
* THREE FORKS  PTCLDY    21   7  55 N/A        N/A
* BOULDER HILL N/A        9   3  76 NE12       N/A   WCI  -6
* MONIDA PASS  N/A       12   7  80 NW11G16    N/A   WCI  -2
* RAYNOLDS PAS N/A        5   4  96 NW15       N/A   WCI -13
* WHITEHALL    N/A       21   9  60 E7G14      N/A   WCI  12
* WISE RIVER   N/A       16   4  59 E10        N/A   WCI   4
$$

MTZ009>010-012-014-046-048-049-054-281900-
EAST SLOPES AND CENTRAL MONTANA
CITY           SKY/WX    TMP DP  RH WIND       PRES   REMARKS
CUT BANK       SUNNY     18   9  68 NW9       30.13F WCI   7
GREAT FALLS    SUNNY     16   9  74 W3        30.17R
HELENA         CLOUDY    19   7  59 NW10      30.13S WCI   8
MALMSTROM AFB  SUNNY     14   9  80 W6        30.19S WCI   5
* CONRAD       SUNNY     16   9  74 W7         N/A   WCI   6
* DEARBORN     N/A       17   7  65 N/A        N/A
* EAST GLACIER N/A       12   1  61 S7         N/A   WCI   1
* MONARCH      N/A        8   2  76 NW11       N/A   WCI  -7
* PENDROY      N/A       17   6  62 NW4        N/A
* ROGERS PASS  N/A       10   4  76 SE2        N/A
* SWEET GRASS  N/A       14  11  88 NW9        N/A   WCI   2
* WHITE SULPH  N/A       15   5  64 NW6G12     N/A   WCI   6
$$

MTZ011-013-016-021-035-040-045-047-050-051-281900-
NORTH CENTRAL MONTANA
CITY           SKY/WX    TMP DP  RH WIND       PRES   REMARKS
HAVRE          CLOUDY    18   7  62 W13       30.22S WCI   5
LEWISTOWN      HAZE      12   7  80 W7        30.11F WCI   1
* N BAR RANCH  PTSUNNY   16   5  62 N9        30.07S WCI   5
* CHINOOK      SUNNY     16   5  62 W13G18    30.22F WCI   2
* FORT BENTON  SUNNY     16   7  67 SW7       30.24F WCI   6
* MALTA APT    SUNNY     16   1  51 W13G18     N/A   WCI   2
* CHESTER      N/A       16   5  62 NW1G6      N/A
* DENTON       N/A       14   7  73 NW6        N/A   WCI   5
* GEYSER       N/A       14   6  70 W17G23     N/A   WCI  -2
* JUDITH GAP   N/A       11   7  84 N17        N/A   WCI  -6
* LOMA         N/A       15   6  67 W9G14      N/A   WCI   3
$$

MTZ017>020-022>027-061-062-281900-
NORTHEAST MONTANA
CITY           SKY/WX    TMP DP  RH WIND       PRES   REMARKS
GLASGOW        CLOUDY    12   1  61 NW13      30.20S WCI  -3
GLENDIVE       CLOUDY    18   7  62 W17G22    30.17S WCI   3
JORDAN         SUNNY     18   9  68 NW12      30.18R WCI   5
SIDNEY         PTCLDY    16   7  67 W12       30.21F WCI   3
WOLF POINT     CLOUDY    18   3  52 NW12      30.21S WCI   5
* BEAVER HILL  N/A       12   5  73 W13        N/A   WCI  -3
* CIRCLE       N/A       14   8  77 NW12G18    N/A
* LINDSAY DVD  N/A       13   6  73 W19        N/A   WCI  -5
* NAVAJO       N/A       10   2  70 NW16       N/A   WCI  -7
* PLENTYWOOD A SUNNY      9   1  70 NW16      30.15R WCI  -8
* POPLAR APT   SUNNY     14   1  56 W10G16    30.21S WCI   1
* SACO         N/A       15   2  56 W12G17     N/A   WCI   1
* SCOBEY APT   SUNNY     10  -6  48 W14G20     N/A   WCI  -6
$$

MTZ028>042-056>058-281900-
SOUTHCENTRAL AND SOUTHEAST MONTANA
CITY           SKY/WX    TMP DP  RH WIND       PRES   REMARKS
BAKER          CLOUDY    14   3  61 NW17      30.14S WCI  -2
BILLINGS       PTSUNNY   19   9  65 VRB6      30.13S WCI  11
LIVINGSTON     HAZE      16   9  74 S5        30.06S WCI   8
MILES CITY     LGT SNOW  18   7  62 NW10      30.19S WCI   6
* BIG TIMBER A PTCLDY    18   7  62 CALM      30.07F
* FORSYTH APT  SUNNY     19   9  65 W13       30.19S WCI   6
* LAUREL APT   PTCLDY    21   9  60 N/A        N/A
* ROUNDUP APT  SUNNY     19   5  54 N/A        N/A
* ALZADA       N/A       14   6  70 W9         N/A   WCI   2
* HYSHAM       N/A       17   6  62 VRB3G9     N/A
* LAME DEER    N/A       11   4  73 NW12G17    N/A   WCI  -4
* REED POINT   N/A       22  11  62 W6         N/A   WCI  14
$$

REGIONAL REPORTS...DAKOTAS
CITY           SKY/WX    TMP DP  RH WIND       PRES   REMARKS
WILLISTON      CLOUDY    12   1  61 NW18      30.18S WCI  -5
DICKINSON      SUNNY     16   1  51 NW23      30.10S WCI  -2
BEACH          LGT SNOW  14   7  73 W13G18    30.14S
CROSBY         LGT SNOW   9   3  76 NW18      30.16S WCI  -9
TIOGA          LGT SNOW   7   1  76 W15       30.15S WCI -10
WATFORD CITY   LGT SNOW  10   1  67 W16G23    30.15S WCI  -7
BISMARCK       PTCLDY    21   9  60 NW18      30.14R WCI   6
GRAND FORKS    PTCLDY    16   9  74 S16       30.18F WCI   1
FARGO          PTSUNNY   23  10  57 S16       30.21F WCI  10
BUFFALO SD     PTCLDY    14   3  61 NW25G32   30.05S WCI  -5
RAPID CITY     SUNNY     19   9  65 N22       30.10S WCI   2
$$

REGIONAL REPORTS...WYOMING/IDAHO/WASHINGTON
CITY           SKY/WX    TMP DP  RH WIND       PRES   REMARKS
GILLETTE       CLOUDY    16   7  67 NW12      30.07S WCI   3
SHERIDAN       LGT SNOW  18   9  68 NW6       30.11S WCI  10
CODY           CLOUDY    16  12  84 N9        30.01S WCI   5
YELLOWSTONE LA PTCLDY    10   0  64 CALM      29.82S
SALMON         SUNNY    N/A N/A N/A NE9       29.94S
MULLAN PASS    SUNNY     18   3  52 VRB3      29.93S
SAND POINT     SUNNY     34   3  27 N17G24    30.17R WCI  23
SPOKANE        SUNNY     36   5  27 NE16G24   30.10R WCI  26
$$

REGIONAL REPORTS...ALBERTA
CITY           SKY/WX    TMP DP  RH WIND       PRES   REMARKS
LETHBRIDGE     N/A       21  14  74 W17       30.17F WCI   7
MEDICINE HAT   PTCLDY    18  12  77 SW13      30.20S WCI   5
EDMONTON       PTCLDY    16   7  67 W7        30.15S WCI   6
WATERTON GATE  N/A       21   7  55 SW5        N/A   WCI  14
CARDSTON       N/A       19   7  59 W9         N/A   WCI   8
MILK RIVER     N/A       14   9  80 W8         N/A   WCI   3
$$

REGIONAL REPORTS...SASKATCHEWAN
CITY           SKY/WX    TMP DP  RH WIND       PRES   REMARKS
SWIFT CURRENT  SUNNY     10   5  80 W18       30.09F WCI  -8
REGINA         SUNNY      5   1  83 W13       30.15S WCI -12
VAL MARIE      N/A       14   1  56 NW9        N/A   WCI   2
ASSINIBOIA     N/A        9   0  66 W15        N/A   WCI  -8
CORONACH       N/A       12   3  67 NW14       N/A   WCI  -4

$$




USA.gov is the U.S. government's official web portal to all federal, state and local government web resources and services.